Theta_e
350 348 349 350 350 348 350 348 349 349 346 345 342 340 339 340 343 344 341 339 339 340 342 343 345 346 346 346 346 345 344 342 341 340 345 343 340 338 339 339 339 339 337
349 348 351 350 350 351 350 349 348 346 344 345 348 340 339 339 341 341 342 341 339 338 339 341 343 344 348 347 347 346 346 344 341 344 344 341 340 337 338 340 341 339 335
350 350 349 349 350 350 350 350 349 345 348 343 339 337 336 335 337 337 339 339 339 339 336 340 341 341 343 344 346 347 346 344 340 336 333 344 342 338 340 341 340 335 332
348 349 348 349 351 350 350 349 347 345 342 339 337 335 335 334 337 337 337 338 340 341 338 336 339 339 339 341 342 343 341 345 345 343 337 331 333 333 334 339 340 338 338
350 351 349 349 349 351 349 349 347 344 339 336 336 336 336 339 339 338 337 336 339 340 342 338 338 338 340 346 341 342 342 342 343 343 342 341 338 337 338 338 337 336 336
352 352 347 349 352 351 350 347 345 342 336 337 337 336 338 337 338 338 338 338 340 342 344 341 339 341 340 342 344 343 342 342 343 342 342 341 342 342 341 340 340 340 340
351 352 350 351 351 350 347 345 344 341 335 338 335 334 339 338 338 339 334 337 341 342 343 344 344 345 342 340 339 342 342 342 342 342 342 343 342 342 342 342 341 341 340
351 352 352 350 349 350 350 346 342 334 338 339 335 337 335 338 336 334 333 337 339 339 340 339 334 336 340 340 338 339 341 341 341 341 341 341 341 341 341 341 342 342 342
352 353 351 349 349 350 349 346 334 337 338 339 335 338 334 336 339 333 331 332 333 333 334 332 328 334 340 334 331 325 320 331 336 338 339 340 341 341 341 341 341 342 342
353 350 350 346 347 351 349 346 337 337 337 338 335 334 333 333 333 337 332 331 331 331 331 332 328 331 330 330 328 326 320 321 319 317 317 318 318 319 320 323 327 332 338
353 351 352 350 350 348 347 340 340 338 336 336 339 336 336 336 330 331 331 332 330 329 329 329 330 327 328 328 327 326 325 326 325 323 321 320 318 317 317 317 318 318 319
353 353 351 350 351 343 341 339 338 336 338 337 338 339 334 334 334 334 328 329 331 333 329 327 330 328 327 327 327 327 327 326 326 325 327 327 326 325 324 321 319 317 317
355 352 352 350 350 346 341 340 340 339 336 338 337 336 335 334 333 330 329 330 329 332 332 330 330 328 328 327 327 327 327 327 327 327 328 328 327 326 326 325 324 323 320
354 349 352 351 350 347 343 340 340 338 336 337 338 336 335 334 333 333 331 330 325 328 332 330 331 331 329 329 328 327 327 327 327 328 328 329 328 328 328 327 326 326 324
352 350 350 351 349 346 341 339 341 340 338 336 331 337 335 335 333 333 332 332 329 327 324 329 331 332 332 329 328 328 327 328 329 329 329 329 328 327 329 329 329 328 327
350 349 348 348 347 346 342 340 341 340 338 336 336 336 334 332 332 333 333 332 330 329 324 330 331 328 328 329 329 329 328 327 328 329 330 328 327 327 328 329 329 328 328
350 347 346 347 347 346 343 337 339 341 341 335 339 339 336 335 334 335 333 333 333 333 332 333 332 330 330 330 330 330 330 329 328 329 328 329 329 329 329 327 325 325 324
350 346 346 347 347 346 345 336 338 342 341 337 336 339 339 336 336 336 333 333 332 331 332 330 331 331 331 331 329 328 329 329 327 328 328 330 329 327 326 325 324 324 323
354 351 348 348 348 347 346 343 337 338 341 339 337 338 337 338 336 337 334 333 333 335 334 333 332 331 331 331 330 329 329 328 328 326 326 326 327 326 325 323 323 322 322
356 354 351 348 348 347 346 345 341 339 341 340 336 338 339 338 336 334 333 334 335 333 333 332 332 331 331 330 330 329 329 328 327 325 326 327 325 323 321 319 318 318 316
357 355 353 351 349 347 347 346 343 340 341 341 338 337 339 338 338 337 333 334 334 329 332 331 331 329 329 330 328 329 329 328 326 324 323 322 321 317 318 318 319 319 320
357 357 355 353 351 349 347 346 345 342 340 340 340 337 336 336 337 336 333 335 329 331 333 330 329 329 328 328 327 326 328 328 325 324 324 324 320 318 319 320 320 320 321
357 359 359 355 352 351 349 347 346 343 341 341 340 336 333 335 336 336 336 335 327 333 332 330 328 328 328 329 325 328 329 328 327 325 325 323 321 321 319 320 320 319 314
359 358 358 358 356 354 352 349 347 344 342 341 340 338 333 334 338 338 335 330 330 332 331 329 327 327 329 328 328 329 329 328 327 326 324 320 321 321 320 320 318 311 311
361 360 360 358 356 355 356 353 347 343 341 341 340 339 334 336 337 336 335 328 330 332 330 330 330 330 329 328 327 326 326 326 322 322 322 320 320 317 316 318 313 311 315
361 361 361 360 359 359 358 354 349 345 341 340 338 337 336 338 338 336 328 330 332 330 330 330 329 327 327 326 325 322 321 323 322 319 315 318 317 318 315 313 311 312 316
Wind_Speed
10 8 4 4 3 3 3 1 3 0 3 3 8 4 4 6 7 11 9 7 6 6 10 11 15 16 16 15 15 14 13 12 14 13 12 12 10 10 9 8 7 7 7
9 8 6 3 2 4 4 2 1 2 1 3 3 2 4 4 8 8 9 8 6 3 6 10 12 14 15 15 16 16 15 14 13 13 13 12 12 9 11 9 10 10 8
11 9 7 4 2 3 7 3 0 1 3 4 4 3 3 2 7 6 6 7 7 6 3 7 9 8 11 14 16 17 17 14 12 13 13 13 13 13 13 12 11 10 9
12 8 7 7 4 3 3 2 2 1 4 3 3 4 7 3 9 7 6 4 7 9 7 2 5 7 7 10 12 15 15 16 16 13 12 14 16 14 14 13 12 12 11
13 10 7 8 6 8 5 4 2 1 2 1 1 3 1 8 7 8 6 7 5 4 10 6 4 4 6 8 9 12 14 13 16 17 15 13 13 13 13 13 14 13 13
17 12 11 9 9 8 6 5 6 0 0 5 1 1 3 5 7 9 11 9 10 10 8 8 7 6 4 6 7 9 10 11 14 14 16 16 17 16 15 16 15 15 14
17 16 13 9 9 9 7 7 5 2 1 3 2 4 5 4 7 14 13 12 12 12 11 8 6 5 5 4 4 4 7 8 9 10 12 13 14 15 15 16 16 17 17
20 19 17 15 13 9 7 9 4 5 3 1 2 2 3 4 8 11 11 13 13 9 11 7 5 4 6 5 3 1 3 5 4 4 7 9 11 12 13 15 16 16 17
23 20 17 15 14 12 13 12 7 8 5 4 3 3 2 2 1 6 9 13 13 9 7 6 4 6 7 4 4 4 3 2 1 2 3 5 6 8 8 10 9 10 13
25 20 18 14 13 15 16 14 10 10 8 8 6 4 4 5 3 0 3 7 7 7 7 6 5 5 6 4 2 4 6 6 6 5 4 3 3 4 6 9 9 10 10
25 21 19 17 16 15 18 16 13 12 11 9 9 10 10 7 4 3 2 3 8 9 10 8 11 7 7 6 2 2 2 2 5 6 6 7 6 6 6 6 7 8 9
27 24 22 19 19 17 19 16 15 14 13 11 8 12 8 4 5 4 2 1 3 7 14 12 14 15 12 10 7 6 4 3 3 3 6 9 9 9 9 9 9 9 10
30 28 27 25 23 21 19 18 18 15 16 14 10 9 6 5 4 6 6 2 2 1 2 13 17 18 18 16 12 11 8 7 6 8 8 9 9 9 9 10 11 13 13
35 30 30 29 25 24 21 21 18 16 15 16 14 11 8 6 4 7 6 6 0 1 4 6 4 14 19 20 17 14 12 10 10 11 12 12 10 11 12 13 13 13 14
35 32 31 30 29 25 23 23 20 17 15 15 17 12 12 10 8 4 5 8 6 2 3 3 2 2 6 16 16 15 13 13 14 15 14 15 15 16 18 18 19 20 19
33 34 32 32 30 26 25 25 22 20 18 19 16 15 15 14 12 8 7 10 9 7 2 5 1 0 3 3 7 10 12 13 15 18 19 18 17 19 21 21 22 23 24
36 35 35 34 33 31 28 29 27 24 21 22 21 21 18 16 14 12 8 4 7 8 5 3 7 7 7 10 10 12 15 17 18 19 19 20 19 22 22 22 22 21 23
38 35 35 38 38 36 32 32 31 30 28 27 25 22 22 19 20 18 14 13 10 9 6 7 8 10 10 11 13 17 17 15 17 16 18 16 18 20 17 18 15 16 17
40 37 36 36 40 39 37 34 34 34 33 29 28 25 24 21 18 17 16 14 13 10 6 7 9 13 16 16 17 14 14 9 8 14 17 16 15 17 15 18 19 18 16
42 42 38 36 37 40 39 38 36 36 34 29 28 27 27 24 23 22 18 17 14 11 15 8 16 17 19 18 19 18 14 17 21 21 16 15 17 20 23 25 27 26 24
42 42 41 38 37 39 42 42 39 38 37 33 31 28 23 23 24 23 19 19 12 16 16 7 14 22 22 24 17 12 13 17 19 18 14 15 20 19 18 16 17 17 18
40 41 40 40 40 40 41 42 40 40 37 35 33 31 25 22 21 24 23 20 17 19 14 6 15 21 25 23 17 16 15 13 4 13 9 22 20 19 17 18 18 18 18
35 38 39 38 40 41 42 41 39 39 34 31 29 30 24 23 22 23 23 22 20 18 15 12 24 24 29 27 19 19 20 19 21 23 25 25 28 25 20 19 18 16 22
35 36 37 39 40 42 41 39 37 36 32 30 31 30 27 24 23 22 20 20 17 19 18 19 24 27 28 23 20 20 20 20 21 23 25 13 25 23 21 20 21 23 23
31 33 38 39 40 41 39 38 33 31 28 26 25 25 24 21 21 21 21 20 22 25 22 20 20 18 17 17 16 16 16 17 13 22 25 16 15 20 23 25 22 21 22
34 32 33 36 39 38 37 35 32 31 26 24 23 22 22 22 21 20 22 22 20 24 19 15 13 13 12 14 14 16 17 17 18 5 11 11 19 22 10 17 19 20 20
Wind_Direction
183 177 167 196 224 232 167 126 147 154 358 65 107 84 120 164 180 173 164 153 155 193 209 206 201 195 194 195 194 199 201 204 203 200 202 205 211 209 213 215 221 222 232
198 194 189 221 238 212 187 179 306 297 31 358 348 345 238 217 188 196 189 178 179 183 206 210 214 203 200 199 204 207 207 207 211 217 216 207 216 226 223 235 235 239 245
197 199 210 186 216 235 198 192 57 307 332 17 87 182 259 170 201 185 190 201 190 194 190 201 207 212 216 214 208 213 215 217 218 223 224 220 219 227 234 237 244 251 252
211 221 209 197 180 208 203 284 293 105 64 45 1 357 317 246 192 162 150 181 179 200 185 196 205 206 215 230 226 225 220 225 225 225 226 227 231 233 233 241 245 251 255
211 220 222 209 214 204 245 281 212 123 351 333 70 358 44 151 176 160 158 164 136 202 202 179 191 213 224 229 233 237 240 239 234 235 230 229 232 236 241 247 248 252 258
212 213 214 212 201 210 236 226 183 118 222 2 353 323 125 128 134 143 130 131 112 127 154 181 193 210 215 211 229 230 239 246 242 241 240 241 240 243 250 254 256 257 261
216 219 221 207 201 215 200 177 171 205 233 333 0 322 142 108 137 156 135 130 127 130 142 158 189 173 185 174 201 206 225 234 246 245 247 250 255 255 257 258 261 262 262
224 222 222 217 219 204 202 194 211 177 181 132 184 102 25 89 140 145 134 129 138 128 137 124 117 169 165 127 113 155 210 219 229 232 244 246 255 258 261 264 259 259 263
216 217 219 217 213 216 200 194 188 173 162 140 90 141 88 191 139 159 151 143 144 151 147 132 131 137 153 146 114 74 83 100 168 244 254 264 274 279 283 278 275 272 264
208 214 212 204 209 194 197 200 191 184 183 163 149 121 119 143 151 88 198 163 182 197 190 183 192 174 165 162 138 90 93 69 60 42 14 353 331 306 294 289 285 279 277
213 211 210 204 199 198 195 192 195 198 194 175 181 176 167 164 150 134 198 207 214 220 210 222 208 213 206 194 181 161 140 58 28 20 19 347 327 314 315 317 316 312 301
211 211 208 207 202 191 190 197 198 203 202 197 189 198 182 166 170 141 111 178 231 250 220 218 222 217 221 225 222 215 232 246 322 334 356 352 334 314 310 309 311 309 306
203 206 206 203 202 203 201 199 205 213 214 211 207 203 190 178 153 159 152 151 172 255 262 238 246 229 227 226 232 231 237 246 274 295 295 321 332 319 311 305 304 301 295
206 206 207 207 209 209 210 207 216 221 217 221 223 226 213 186 173 201 197 169 81 274 241 250 248 232 239 234 236 239 242 252 268 284 287 293 306 306 303 299 298 300 298
208 207 207 207 207 212 212 208 212 217 221 228 231 231 231 219 214 200 203 221 192 195 273 235 293 281 235 233 237 241 252 263 273 278 290 295 302 306 303 298 294 290 289
210 207 209 210 212 214 213 210 213 215 222 223 224 232 237 236 226 214 199 209 222 217 200 219 196 107 287 238 250 266 278 280 276 277 275 281 292 297 298 296 296 294 285
214 212 211 213 215 213 211 212 216 217 225 225 229 233 237 235 233 233 236 246 237 231 221 262 217 268 244 245 275 282 278 276 281 287 287 290 288 296 295 300 294 298 294
217 215 217 218 218 216 214 214 217 219 222 223 229 231 235 240 244 245 253 247 251 231 237 265 282 282 280 286 291 298 293 281 289 288 289 288 290 294 299 300 300 292 292
220 218 219 219 220 218 217 220 222 224 224 226 231 233 239 237 239 234 241 246 249 264 246 272 291 300 300 303 304 307 301 290 298 300 301 290 288 295 298 302 303 296 296
223 222 222 222 220 220 223 224 225 228 228 226 230 234 240 242 249 246 246 250 262 276 283 310 313 305 310 306 298 298 282 301 312 313 306 298 298 302 302 301 301 299 297
221 226 225 224 224 223 225 226 228 230 228 225 229 235 241 245 251 249 251 248 243 258 269 263 303 298 295 294 280 276 275 299 308 305 310 319 315 317 321 320 320 321 314
218 223 225 226 223 225 231 233 234 233 232 228 229 232 239 247 249 244 244 241 241 255 241 247 276 269 278 286 286 283 272 288 292 304 263 305 311 309 308 303 303 302 303
210 218 222 223 227 230 234 238 236 235 233 231 233 231 233 242 245 242 243 240 249 257 252 251 263 260 278 286 292 294 296 297 291 298 300 301 305 300 304 304 296 291 300
204 210 217 225 229 232 236 238 237 232 235 238 236 233 236 244 238 238 235 232 243 253 264 250 263 270 275 284 285 291 291 289 286 293 298 288 300 293 301 296 296 305 305
201 206 214 219 224 230 236 238 229 222 226 233 236 232 233 241 240 240 243 241 256 262 264 267 272 274 278 283 288 288 287 283 284 298 303 281 286 299 300 295 296 294 304
202 202 206 217 224 228 232 230 221 219 216 219 213 222 235 240 243 235 243 246 250 264 271 276 268 267 274 279 286 293 295 283 286 292 305 271 297 302 293 282 287 295 298